Spokane Fairchild, WA

8:40 PM PDT on May 21, 2018 (GMT -0700)
Fairchild Air Force Base

Weather History for KSKA - August, 2013

Change the Weather History Date:

Saturday, August 3, 2013

  Actual Average Record
Temperature  
Mean Temperature 64 °F -  
Max Temperature 73 °F 83 °F 96 °F (1997)
Min Temperature 56 °F 56 °F 46 °F (2016)
Degree Days  
Heating Degree Days 1    
Growing Degree Days 14 (Base 50)    
Moisture  
Dew Point 56 °F    
Average Humidity 87    
Maximum Humidity 100    
Minimum Humidity 51    
Precipitation  
Precipitation 0.02 in - - ()
Sea Level Pressure  
Sea Level Pressure 30.10 in    
Wind  
Wind Speed 3 mph (ENE)    
Max Wind Speed 5 mph    
Max Gust Speed -    
Visibility 10 miles    
Events Rain    
Averages and records for this station are not official NWS values.
T = Trace of Precipitation, MM = Missing Value Source: NWS Daily Summary

Daily Weather History Graph

Daily Weather History Graph

Search for Another Location

Airport or City:

Astronomy

Aug. 03, 2013 Rise Set
Actual Time 5:31 AM PDT 8:21 PM PDT
Civil Twilight 4:55 AM PDT 8:57 PM PDT
Nautical Twilight 4:09 AM PDT 9:42 PM PDT
Astronomical Twilight 3:14 AM PDT 10:36 PM PDT
Moon 2:41 AM PDT (8/3) 6:09 PM PDT (8/3)
Length of Visible Light 16h 01m
Length of Day
14h 50m
Waning Crescent, 9% of the Moon is Illuminated
Aug 3
Waning Crescent
Aug 6
New
Aug 14
First Quarter
Aug 20
Full
Aug 28
Last Quarter

Hourly Weather History & Observations

Time (PDT) Temp. Dew Point Humidity Pressure Visibility Wind Dir Wind Speed Gust Speed Precip Events Conditions
12:06 AM 57.2 °F 55.4 °F 94% 30.09 in 10.0 mi ENE 2.3 mph - N/A   Light Drizzle
12:30 AM 57.2 °F 55.4 °F 94% 30.09 in 10.0 mi NE 2.3 mph - N/A   Light Drizzle
12:58 AM 57.2 °F 55.2 °F 93% 30.09 in 10.0 mi NNE 3.5 mph - 0.01 in Rain Light Rain
1:27 AM 57.2 °F 55.4 °F 94% 30.09 in 10.0 mi NE 3.5 mph - N/A   Overcast
1:31 AM 57.2 °F 55.4 °F 94% 30.09 in 10.0 mi NE 4.6 mph - N/A   Light Drizzle
1:53 AM 57.2 °F 55.4 °F 94% 30.09 in 9.0 mi NE 4.6 mph - N/A   Light Drizzle
1:58 AM 57.4 °F 56.3 °F 96% 30.09 in 9.0 mi NE 4.6 mph - 0.00 in   Light Drizzle
2:15 AM 57.2 °F 57.2 °F 100% 30.09 in 10.0 mi NE 4.6 mph - N/A Rain Light Rain
2:26 AM 57.2 °F 57.2 °F 100% 30.09 in 10.0 mi ENE 3.5 mph - N/A   Overcast
2:58 AM 57.2 °F 56.8 °F 99% 30.09 in 10.0 mi ENE 4.6 mph - 0.00 in   Overcast
3:01 AM 57.2 °F 57.2 °F 100% 30.09 in 10.0 mi ENE 4.6 mph - N/A   Overcast
3:12 AM 57.2 °F 57.2 °F 100% 30.09 in 10.0 mi NE 3.5 mph - N/A   Overcast
3:18 AM 57.2 °F 57.2 °F 100% 30.09 in 10.0 mi NE 3.5 mph - N/A   Overcast
3:55 AM 57.2 °F 57.2 °F 100% 30.09 in 10.0 mi NE 2.3 mph - N/A Rain Light Rain
3:58 AM 56.8 °F 56.5 °F 99% 30.09 in 10.0 mi NE 1.2 mph - 0.00 in Rain Light Rain
4:10 AM 57.2 °F 57.2 °F 100% 30.09 in 10.0 mi NE 2.3 mph - N/A Rain Light Rain
4:21 AM 57.2 °F 57.2 °F 100% 30.09 in 10.0 mi NE 3.5 mph - N/A Rain Light Rain
4:32 AM 57.2 °F 57.2 °F 100% 30.09 in 10.0 mi NE 2.3 mph - N/A Rain Light Rain
4:49 AM 57.2 °F 57.2 °F 100% 30.10 in 10.0 mi NE 3.5 mph - N/A Rain Light Rain
4:58 AM 57.0 °F 56.7 °F 99% 30.10 in 10.0 mi NE 4.6 mph - 0.01 in Rain Light Rain
5:15 AM 57.2 °F 57.2 °F 100% 30.10 in 10.0 mi NNE 3.5 mph - N/A Rain Light Rain
5:18 AM 57.2 °F 57.2 °F 100% 30.10 in 10.0 mi NNE 4.6 mph - N/A   Mostly Cloudy
5:32 AM 57.2 °F 57.2 °F 100% 30.10 in 10.0 mi NNE 3.5 mph - N/A   Light Drizzle
5:52 AM 57.2 °F 57.2 °F 100% 30.10 in 10.0 mi NNE 4.6 mph - N/A   Overcast
5:55 AM 57.2 °F 57.2 °F 100% 30.10 in 10.0 mi NNE 4.6 mph - N/A   Overcast
5:58 AM 56.8 °F 56.5 °F 99% 30.11 in 10.0 mi NNE 3.5 mph - 0.00 in   Overcast
6:36 AM 57.2 °F 57.2 °F 100% 30.12 in 10.0 mi ENE 3.5 mph - N/A Rain Light Rain
6:40 AM 57.2 °F 55.4 °F 94% 30.12 in 10.0 mi ENE 3.5 mph - N/A Rain Light Rain
6:41 AM 57.2 °F 55.4 °F 94% 30.12 in 10.0 mi NE 3.5 mph - N/A Rain Light Rain
6:45 AM 57.2 °F 55.4 °F 94% 30.12 in 10.0 mi NE 3.5 mph - N/A   Light Drizzle
6:49 AM 57.2 °F 55.4 °F 94% 30.12 in 10.0 mi NE 4.6 mph - N/A   Overcast
6:51 AM 57.2 °F 55.4 °F 94% 30.12 in 10.0 mi NE 4.6 mph - N/A   Overcast
6:58 AM 57.2 °F 56.3 °F 97% 30.12 in 10.0 mi ENE 3.5 mph - 0.00 in   Overcast
7:21 AM 57.2 °F 57.2 °F 100% 30.12 in 10.0 mi NE 3.5 mph - N/A   Overcast
7:57 AM 59.0 °F 57.2 °F 94% 30.12 in 10.0 mi NE 1.2 mph - N/A   Overcast
7:58 AM 59.0 °F 57.2 °F 94% 30.12 in 10.0 mi ENE 1.2 mph - N/A   Overcast
8:43 AM 59.0 °F 57.2 °F 94% 30.13 in 10.0 mi North 2.3 mph - N/A   Overcast
8:51 AM 59.0 °F 57.2 °F 94% 30.13 in 10.0 mi East 2.3 mph - N/A   Overcast
8:58 AM 59.4 °F 56.8 °F 91% 30.13 in 10.0 mi Variable 2.3 mph - N/A   Overcast
9:15 AM 59.0 °F 55.4 °F 88% 30.13 in 10.0 mi Calm Calm - N/A   Overcast
9:58 AM 60.8 °F 55.9 °F 84% 30.13 in 10.0 mi ESE 2.3 mph - N/A   Overcast
10:41 AM 62.6 °F 55.4 °F 77% 30.13 in 10.0 mi East 3.5 mph - N/A   Overcast
10:58 AM 62.4 °F 56.1 °F 80% 30.14 in 10.0 mi Calm Calm - N/A   Overcast
11:58 AM 64.4 °F 56.1 °F 74% 30.14 in 10.0 mi Calm Calm - N/A   Overcast
12:15 PM 66.2 °F 55.4 °F 68% 30.14 in 10.0 mi West 4.6 mph - N/A   Overcast
12:23 PM 66.2 °F 55.4 °F 68% 30.14 in 10.0 mi Variable 3.5 mph - N/A   Overcast
12:58 PM 67.8 °F 55.8 °F 65% 30.13 in 10.0 mi Variable 1.2 mph - N/A   Partly Cloudy
1:58 PM 67.8 °F 55.0 °F 64% 30.12 in 10.0 mi SSW 4.6 mph - N/A   Scattered Clouds
2:58 PM 70.0 °F 54.0 °F 57% 30.11 in 10.0 mi Variable 2.3 mph - N/A   Partly Cloudy
3:58 PM 71.6 °F 52.9 °F 52% 30.09 in 10.0 mi Variable 1.2 mph - N/A   Mostly Cloudy
4:58 PM 72.1 °F 52.9 °F 51% 30.08 in 10.0 mi Variable 1.2 mph - N/A   Scattered Clouds
5:58 PM 70.9 °F 54.5 °F 56% 30.06 in 10.0 mi South 3.5 mph - N/A   Mostly Cloudy
6:58 PM 72.3 °F 53.4 °F 51% 30.06 in 10.0 mi SE 3.5 mph - N/A   Clear
7:48 PM 69.8 °F 55.4 °F 60% 30.07 in 10.0 mi SSE 3.5 mph - N/A Rain Light Rain
7:53 PM 69.8 °F 55.4 °F 60% 30.07 in 10.0 mi SSE 3.5 mph - N/A   Clear
7:58 PM 69.6 °F 56.1 °F 62% 30.06 in 10.0 mi SE 3.5 mph - 0.00 in   Clear
8:58 PM 66.7 °F 55.0 °F 66% 30.07 in 10.0 mi South 2.3 mph - N/A   Clear
9:58 PM 66.6 °F 54.0 °F 64% 30.06 in 10.0 mi SSE 1.2 mph - N/A   Clear
10:58 PM 62.4 °F 54.9 °F 76% 30.07 in 10.0 mi SSW 1.2 mph - N/A   Clear
11:58 PM 60.4 °F 54.9 °F 82% 30.07 in 10.0 mi NE 1.2 mph - N/A   Clear